When you browse on this site, cookies collect data to enhance your experience and personalize the content and advertising you see.
Visit our Privacy Policy to learn more. By continuing to use the site, you agree to this use of cookies and data.
  • In Austria
  • List of Countries
  • For 7 days
  • Water Temperature
  • Weather Map
  • News
  • Weather Widgets
  • user-avatar
    Login

    Hourly Weather Bijeljina

    Today, 28 February, Friday

    Time Temperature Precipitation Wind Pressure Humidity
    00:00 +3°C° 0 mm 3 mps 747 mmHg 68%
    01:00 +3°C° 0 mm 3 mps 746 mmHg 66%
    02:00 +3°C° 0 mm 3 mps 746 mmHg 67%
    03:00 +4°C° 0 mm 2 mps 745 mmHg 67%
    04:00 +5°C° 0 mm 2 mps 745 mmHg 68%
    05:00 +4°C° 0.4 mm 2 mps 745 mmHg 73%
    06:00 +5°C° 0.4 mm 1 mps 745 mmHg 78%
    07:00 +5°C° 0 mm 1 mps 746 mmHg 82%
    08:00 +4°C° 0.1 mm 3 mps 747 mmHg 77%
    09:00 +5°C° 0.1 mm 5 mps 747 mmHg 71%
    10:00 +5°C° 0.1 mm 7 mps 748 mmHg 65%
    11:00 +5°C° 0.2 mm 8 mps 749 mmHg 62%
    12:00 +5°C° 0.2 mm 8 mps 750 mmHg 59%
    13:00 +6°C° 0.2 mm 9 mps 751 mmHg 56%
    14:00 +6°C° 0.2 mm 9 mps 751 mmHg 55%
    15:00 +6°C° 0.2 mm 9 mps 751 mmHg 54%
    16:00 +6°C° 0.2 mm 9 mps 752 mmHg 53%
    17:00 +5°C° 0 mm 7 mps 753 mmHg 57%
    18:00 +4°C° 0 mm 6 mps 754 mmHg 60%
    19:00 +4°C° 0 mm 4 mps 755 mmHg 64%
    20:00 +3°C° 0 mm 4 mps 756 mmHg 67%
    21:00 +3°C° 0 mm 4 mps 757 mmHg 70%
    22:00 +1°C° 0 mm 4 mps 757 mmHg 73%
    23:00 +2°C° 0 mm 3 mps 758 mmHg 74%

    Tomorrow, 29 February, Saturday

    Time Temperature Precipitation Wind Pressure Humidity
    00:00 +2°C° 0 mm 3 mps 758 mmHg 76%
    01:00 +1°C° 0 mm 3 mps 759 mmHg 77%
    02:00 +1°C° 0 mm 3 mps 758 mmHg 78%
    03:00 +2°C° 0 mm 2 mps 758 mmHg 78%
    04:00 +1°C° 0 mm 2 mps 758 mmHg 78%
    05:00 +1°C° 0 mm 2 mps 758 mmHg 78%
    06:00 +1°C° 0 mm 2 mps 758 mmHg 77%
    07:00 +1°C° 0 mm 2 mps 758 mmHg 76%
    08:00 +3°C° 0 mm 2 mps 757 mmHg 69%
    09:00 +5°C° 0 mm 2 mps 757 mmHg 61%
    10:00 +7°C° 0 mm 2 mps 756 mmHg 54%
    11:00 +8°C° 0 mm 3 mps 756 mmHg 50%
    12:00 +9°C° 0 mm 3 mps 755 mmHg 46%
    13:00 +10°C° 0 mm 3 mps 755 mmHg 43%
    14:00 +10°C° 0 mm 3 mps 754 mmHg 47%
    15:00 +10°C° 0 mm 3 mps 753 mmHg 51%
    16:00 +9°C° 0 mm 3 mps 753 mmHg 55%
    17:00 +8°C° 0 mm 2 mps 753 mmHg 61%
    18:00 +7°C° 0 mm 2 mps 753 mmHg 67%
    19:00 +6°C° 0 mm 2 mps 753 mmHg 73%
    20:00 +6°C° 0 mm 2 mps 752 mmHg 72%
    21:00 +6°C° 0 mm 2 mps 752 mmHg 72%
    22:00 +5°C° 0 mm 2 mps 752 mmHg 72%
    23:00 +5°C° 0 mm 2 mps 752 mmHg 70%

    Day after tomorrow, 1 March, Sunday

    Time Temperature Precipitation Wind Pressure Humidity
    00:00 +5°C° 0 mm 2 mps 752 mmHg 69%
    01:00 +4°C° 0 mm 2 mps 752 mmHg 68%
    02:00 +4°C° 0 mm 2 mps 752 mmHg 66%
    03:00 +4°C° 0 mm 2 mps 752 mmHg 65%
    04:00 +4°C° 0 mm 2 mps 752 mmHg 63%
    05:00 +4°C° 0 mm 2 mps 751 mmHg 63%
    06:00 +4°C° 0 mm 2 mps 751 mmHg 62%
    07:00 +4°C° 0 mm 2 mps 751 mmHg 62%
    08:00 +6°C° 0 mm 2 mps 751 mmHg 58%
    09:00 +8°C° 0 mm 2 mps 751 mmHg 53%
    10:00 +10°C° 0 mm 2 mps 751 mmHg 49%
    11:00 +11°C° 0 mm 3 mps 751 mmHg 49%
    12:00 +13°C° 0 mm 3 mps 750 mmHg 49%
    13:00 +14°C° 0 mm 3 mps 750 mmHg 49%
    14:00 +14°C° 0 mm 3 mps 749 mmHg 53%
    15:00 +13°C° 0 mm 3 mps 749 mmHg 56%
    16:00 +13°C° 0 mm 3 mps 748 mmHg 59%
    17:00 +12°C° 0 mm 3 mps 748 mmHg 62%
    18:00 +11°C° 0 mm 3 mps 748 mmHg 65%
    19:00 +11°C° 0 mm 3 mps 748 mmHg 68%
    20:00 +10°C° 0 mm 3 mps 747 mmHg 69%
    21:00 +10°C° 0 mm 3 mps 747 mmHg 71%
    22:00 +10°C° 0 mm 3 mps 746 mmHg 72%
    23:00 +10°C° 0 mm 3 mps 746 mmHg 74%

    2 March, Monday

    Time Temperature Precipitation Wind Pressure Humidity
    00:00 +10°C° 0 mm 3 mps 746 mmHg 75%
    01:00 +9°C° 0 mm 3 mps 745 mmHg 77%
    02:00 +10°C° 0.2 mm 3 mps 745 mmHg 78%
    03:00 +10°C° 0.2 mm 3 mps 744 mmHg 79%
    04:00 +10°C° 0.2 mm 3 mps 744 mmHg 80%
    05:00 +10°C° 0.1 mm 3 mps 744 mmHg 80%
    06:00 +10°C° 0.1 mm 2 mps 744 mmHg 81%
    07:00 +10°C° 0.1 mm 2 mps 744 mmHg 81%
    08:00 +11°C° 0.2 mm 3 mps 744 mmHg 75%
    09:00 +13°C° 0.2 mm 4 mps 744 mmHg 69%
    10:00 +14°C° 0.2 mm 4 mps 744 mmHg 63%
    11:00 +15°C° 0.3 mm 5 mps 744 mmHg 56%
    12:00 +16°C° 0.3 mm 6 mps 744 mmHg 50%
    13:00 +17°C° 0.3 mm 7 mps 744 mmHg 43%
    14:00 +16°C° 0 mm 6 mps 744 mmHg 45%
    15:00 +16°C° 0 mm 5 mps 744 mmHg 47%
    16:00 +17°C° 0 mm 4 mps 744 mmHg 48%
    17:00 +15°C° 0 mm 4 mps 744 mmHg 53%
    18:00 +13°C° 0 mm 3 mps 745 mmHg 59%
    19:00 +12°C° 0 mm 3 mps 745 mmHg 64%
    20:00 +11°C° 0 mm 3 mps 745 mmHg 65%
    21:00 +11°C° 0 mm 3 mps 745 mmHg 66%
    22:00 +11°C° 0 mm 3 mps 745 mmHg 67%
    23:00 +11°C° 0 mm 3 mps 744 mmHg 67%

    3 March, Tuesday

    Time Temperature Precipitation Wind Pressure Humidity
    00:00 +11°C° 0 mm 4 mps 744 mmHg 67%
    01:00 +10°C° 0 mm 5 mps 743 mmHg 67%
    02:00 +10°C° 0 mm 5 mps 743 mmHg 68%
    03:00 +10°C° 0 mm 5 mps 742 mmHg 69%
    04:00 +9°C° 0 mm 5 mps 741 mmHg 70%
    05:00 +10°C° 0 mm 5 mps 741 mmHg 71%
    06:00 +10°C° 0 mm 5 mps 741 mmHg 71%
    07:00 +10°C° 0 mm 5 mps 741 mmHg 72%
    08:00 +12°C° 0 mm 5 mps 741 mmHg 69%
    09:00 +13°C° 0 mm 5 mps 741 mmHg 66%
    10:00 +14°C° 0 mm 5 mps 741 mmHg 63%
    11:00 +14°C° 0 mm 5 mps 741 mmHg 62%
    12:00 +15°C° 0 mm 5 mps 741 mmHg 60%
    13:00 +16°C° 0 mm 5 mps 741 mmHg 59%
    14:00 +15°C° 0.1 mm 5 mps 741 mmHg 62%
    15:00 +15°C° 0.1 mm 5 mps 741 mmHg 65%
    16:00 +14°C° 0.1 mm 4 mps 741 mmHg 68%
    17:00 +13°C° 0.2 mm 3 mps 741 mmHg 74%
    18:00 +13°C° 0.2 mm 2 mps 741 mmHg 79%
    19:00 +12°C° 0.2 mm 1 mps 741 mmHg 85%
    20:00 +12°C° 1.1 mm 2 mps 741 mmHg 88%
    21:00 +10°C° 1.1 mm 2 mps 741 mmHg 91%
    22:00 +10°C° 1.1 mm 3 mps 741 mmHg 94%
    23:00 +9°C° 1.3 mm 3 mps 741 mmHg 93%

    4 March, Wednesday

    Time Temperature Precipitation Wind Pressure Humidity
    00:00 +8°C° 1.3 mm 4 mps 741 mmHg 93%
    01:00 +7°C° 1.3 mm 5 mps 741 mmHg 93%
    02:00 +7°C° 0.4 mm 5 mps 741 mmHg 92%
    03:00 +6°C° 0.4 mm 5 mps 741 mmHg 91%
    04:00 +6°C° 0.4 mm 5 mps 741 mmHg 91%
    05:00 +6°C° 0.3 mm 5 mps 741 mmHg 90%
    06:00 +6°C° 0.3 mm 5 mps 741 mmHg 90%
    07:00 +5°C° 0.3 mm 5 mps 741 mmHg 90%
    08:00 +5°C° 0.3 mm 5 mps 742 mmHg 89%
    09:00 +5°C° 0.3 mm 5 mps 742 mmHg 89%
    10:00 +5°C° 0.3 mm 5 mps 742 mmHg 88%
    11:00 +5°C° 0.3 mm 5 mps 743 mmHg 88%
    12:00 +5°C° 0.3 mm 5 mps 743 mmHg 88%
    13:00 +5°C° 0.3 mm 5 mps 743 mmHg 87%
    14:00 +5°C° 0.2 mm 5 mps 744 mmHg 88%
    15:00 +4°C° 0.2 mm 6 mps 744 mmHg 88%
    16:00 +4°C° 0.2 mm 6 mps 744 mmHg 88%
    17:00 +5°C° 0 mm 5 mps 744 mmHg 86%
    18:00 +5°C° 0 mm 5 mps 745 mmHg 84%
    19:00 +5°C° 0 mm 5 mps 745 mmHg 82%
    20:00 +5°C° 0 mm 4 mps 745 mmHg 82%
    21:00 +4°C° 0 mm 4 mps 746 mmHg 81%
    22:00 +4°C° 0 mm 4 mps 746 mmHg 81%
    23:00 +4°C° 0 mm 3 mps 746 mmHg 81%
    Show more